CW2014 Weather Reports


Display with metric or nautical units.
time (UTC)temp
F
wind
direction
speed
MPH
gust
MPH
rain 1hr
in
rain 24hr
in
rain mn
in
humidity
%
barometer
mb
20260504032528 83 260 6.0 16.0 0.00 0.00 0.00 22 1006.7
20260504032027 83 206 6.0 16.0 0.00 0.00 0.00 21 1006.5
20260504031544 84 236 6.0 15.0 0.00 0.00 0.00 20 1006.5
20260504031024 84 211 6.0 14.0 0.00 0.00 0.00 20 1006.4
20260504030523 84 211 7.0 14.0 0.00 0.00 0.00 20 1006.3
20260504030041 84 202 6.0 14.0 0.00 0.00 0.00 20 1006.2
20260504025526 84 231 6.0 17.0 0.00 0.00 0.00 19 1006.0
20260504025024 85 240 7.0 17.0 0.00 0.00 0.00 19 1005.9
20260504024542 85 229 7.0 18.0 0.00 0.00 0.00 19 1005.9
20260504024025 85 229 7.0 18.0 0.00 0.00 0.00 19 1005.7
20260504023525 85 183 8.0 16.0 0.00 0.00 0.00 19 1005.7
20260504023037 86 205 9.0 16.0 0.00 0.00 0.00 19 1005.6
20260504022523 86 206 7.0 15.0 0.00 0.00 0.00 19 1005.5
20260504022021 86 215 8.0 22.0 0.00 0.00 0.00 18 1005.3
20260504021542 86 238 8.0 22.0 0.00 0.00 0.00 18 1005.5
20260504021024 87 223 9.0 22.0 0.00 0.00 0.00 18 1005.1
20260504020522 87 228 6.0 19.0 0.00 0.00 0.00 18 1005.0
20260504020041 87 232 9.0 19.0 0.00 0.00 0.00 17 1004.9
20260504015525 88 217 6.0 24.0 0.00 0.00 0.00 17 1005.1
20260504015025 88 242 9.0 24.0 0.00 0.00 0.00 17 1005.2
20260504014553 88 193 9.0 16.0 0.00 0.00 0.00 17 1005.0
20260504014024 89 200 6.0 16.0 0.00 0.00 0.00 16 1004.9
20260504013523 89 224 8.0 17.0 0.00 0.00 0.00 16 1004.9
20260504013256 90 209 8.0 17.0 0.00 0.00 0.00 15 1004.8
20260504010525 91 238 7.0 19.0 0.00 0.00 0.00 15 1004.9
20260504010051 92 229 7.0 19.0 0.00 0.00 0.00 15 1004.8
20260504005525 92 225 6.0 17.0 0.00 0.00 0.00 14 1004.8
20260504005026 92 254 6.0 17.0 0.00 0.00 0.00 15 1004.8
20260504004548 92 206 6.0 17.0 0.00 0.00 0.00 15 1004.9
20260504004024 92 251 6.0 17.0 0.00 0.00 0.00 15 1004.9
20260504003527 93 194 7.0 15.0 0.00 0.00 0.00 14 1004.9
20260504003047 93 250 7.0 15.0 0.00 0.00 0.00 14 1004.9
20260504002524 94 218 7.0 14.0 0.00 0.00 0.00 14 1004.8
20260504002024 94 188 5.0 15.0 0.00 0.00 0.00 14 1004.7
20260504001555 94 198 5.0 15.0 0.00 0.00 0.00 14 1004.8
20260504001025 94 207 7.0 15.0 0.00 0.00 0.00 13 1004.7
20260504000525 95 275 4.0 15.0 0.00 0.00 0.00 14 1004.7
20260504000101 95 294 7.0 15.0 0.00 0.00 0.00 14 1004.7
20260503235525 95 248 6.0 15.0 0.00 0.00 0.00 13 1004.7
20260503235027 96 217 6.0 15.0 0.00 0.00 0.00 13 1004.6
20260503234542 96 218 4.0 16.0 0.00 0.00 0.00 13 1004.7
20260503234025 96 194 5.0 16.0 0.00 0.00 0.00 13 1004.6
20260503233525 96 217 6.0 12.0 0.00 0.00 0.00 13 1004.7
20260503233044 96 196 4.0 12.0 0.00 0.00 0.00 14 1004.7
20260503232526 96 197 1.0 9.0 0.00 0.00 0.00 15 1004.7
20260503232024 96 224 3.0 11.0 0.00 0.00 0.00 15 1004.8
20260503231541 96 209 4.0 11.0 0.00 0.00 0.00 15 1004.9
20260503231025 96 170 1.0 9.0 0.00 0.00 0.00 15 1004.8
20260503230524 96 237 2.0 9.0 0.00 0.00 0.00 15 1004.8
20260503230048 96 209 3.0 9.0 0.00 0.00 0.00 15 1005.0
20260503225525 95 246 2.0 10.0 0.00 0.00 0.00 16 1005.0
20260503225024 96 208 4.0 11.0 0.00 0.00 0.00 16 1005.2
20260503224547 95 172 2.0 12.0 0.00 0.00 0.00 16 1005.2
20260503224022 95 268 3.0 12.0 0.00 0.00 0.00 15 1005.4
20260503223528 95 161 4.0 12.0 0.00 0.00 0.00 15 1005.4
20260503223042 95 203 4.0 13.0 0.00 0.00 0.00 15 1005.6
20260503222524 95 205 4.0 14.0 0.00 0.00 0.00 16 1005.6
20260503222024 95 148 6.0 14.0 0.00 0.00 0.00 15 1005.8
20260503221549 95 174 6.0 14.0 0.00 0.00 0.00 15 1005.7
20260503221026 95 146 5.0 11.0 0.00 0.00 0.00 15 1005.8
20260503220528 95 211 5.0 16.0 0.00 0.00 0.00 15 1006.0
20260503220049 95 281 5.0 16.0 0.00 0.00 0.00 15 1006.0
20260503215524 95 177 3.0 13.0 0.00 0.00 0.00 16 1006.1
20260503215024 95 155 7.0 13.0 0.00 0.00 0.00 16 1006.2
20260503214544 95 175 4.0 13.0 0.00 0.00 0.00 16 1006.1
20260503214025 95 175 5.0 13.0 0.00 0.00 0.00 16 1006.2
20260503213525 95 196 4.0 15.0 0.00 0.00 0.00 16 1006.3
20260503213041 95 0 4.0 16.0 0.00 0.00 0.00 15 1006.4
20260503212525 95 144 5.0 17.0 0.00 0.00 0.00 15 1006.6
20260503212025 94 220 6.0 18.0 0.00 0.00 0.00 17 1006.7
20260503211541 94 199 5.0 18.0 0.00 0.00 0.00 16 1006.7
20260503211029 95 237 3.0 13.0 0.00 0.00 0.00 16 1006.9
20260503210524 95 225 5.0 15.0 0.00 0.00 0.00 16 1007.0
20260503210040 95 217 5.0 15.0 0.00 0.00 0.00 16 1007.1
20260503205522 94 207 8.0 15.0 0.00 0.00 0.00 16 1007.1
20260503205022 94 187 3.0 15.0 0.00 0.00 0.00 16 1007.2
20260503204547 94 173 6.0 15.0 0.00 0.00 0.00 17 1007.3
20260503204024 94 146 6.0 15.0 0.00 0.00 0.00 17 1007.3
20260503203525 95 192 5.0 13.0 0.00 0.00 0.00 16 1007.4
20260503203044 94 163 3.0 11.0 0.00 0.00 0.00 17 1007.5
20260503202525 94 211 5.0 10.0 0.00 0.00 0.00 16 1007.5
20260503202029 94 185 4.0 15.0 0.00 0.00 0.00 17 1007.6
20260503201542 94 201 6.0 15.0 0.00 0.00 0.00 17 1007.7
20260503201025 94 193 4.0 14.0 0.00 0.00 0.00 18 1007.7
20260503200524 93 99 6.0 14.0 0.00 0.00 0.00 17 1007.8
20260503200041 93 138 4.0 14.0 0.00 0.00 0.00 17 1007.8
20260503195525 94 165 6.0 15.0 0.00 0.00 0.00 17 1007.9
20260503195029 94 214 6.0 15.0 0.00 0.00 0.00 16 1007.9
20260503194538 94 171 4.0 16.0 0.00 0.00 0.00 17 1008.0
20260503194025 94 225 6.0 16.0 0.00 0.00 0.00 17 1008.0
20260503193526 93 195 3.0 14.0 0.00 0.00 0.00 18 1008.1
20260503193049 93 209 4.0 12.0 0.00 0.00 0.00 19 1008.2
20260503192525 93 218 5.0 12.0 0.00 0.00 0.00 19 1008.5
20260503192024 92 194 2.0 10.0 0.00 0.00 0.00 21 1008.3
20260503191543 92 146 3.0 12.0 0.00 0.00 0.00 21 1008.3
20260503191025 92 167 4.0 14.0 0.00 0.00 0.00 21 1008.5
20260503190524 91 182 3.0 14.0 0.00 0.00 0.00 21 1008.5
20260503190043 91 151 5.0 13.0 0.00 0.00 0.00 21 1008.6
20260503185524 90 150 3.0 12.0 0.00 0.00 0.00 21 1008.6
20260503185025 90 138 5.0 12.0 0.00 0.00 0.00 22 1008.7
20260503184541 90 111 4.0 13.0 0.00 0.00 0.00 23 1008.7
20260503184024 89 151 5.0 13.0 0.00 0.00 0.00 23 1008.8
20260503183525 89 105 4.0 12.0 0.00 0.00 0.00 24 1008.9
20260503183100 89 108 5.0 14.0 0.00 0.00 0.00 24 1008.9
20260503182522 89 138 6.0 14.0 0.00 0.00 0.00 24 1009.0
20260503182027 89 104 4.0 15.0 0.00 0.00 0.00 25 1009.1
20260503181603 89 157 4.0 15.0 0.00 0.00 0.00 25 1009.2
20260503181025 89 158 4.0 12.0 0.00 0.00 0.00 25 1009.2
20260503180525 89 177 5.0 12.0 0.00 0.00 0.00 25 1009.3
20260503180042 89 137 4.0 12.0 0.00 0.00 0.00 25 1009.4
20260503175525 88 178 4.0 15.0 0.00 0.00 0.00 25 1009.5
20260503175025 88 111 5.0 15.0 0.00 0.00 0.00 25 1009.7
20260503174542 88 138 3.0 14.0 0.00 0.00 0.00 26 1009.5
20260503174021 87 159 6.0 16.0 0.00 0.00 0.00 26 1009.7
20260503173522 87 143 5.0 16.0 0.00 0.00 0.00 26 1009.8
20260503173053 87 126 5.0 16.0 0.00 0.00 0.00 27 1009.6
20260503172529 86 136 4.0 17.0 0.00 0.00 0.00 27 1009.6
20260503172022 86 138 7.0 17.0 0.00 0.00 0.00 26 1009.7
20260503171543 86 165 5.0 14.0 0.00 0.00 0.00 26 1009.7
20260503171025 86 154 6.0 19.0 0.00 0.00 0.00 27 1009.8
20260503170525 85 156 5.0 19.0 0.00 0.00 0.00 27 1009.8
20260503150524 80 172 7.0 17.0 0.00 0.00 0.00 32 1009.8
20260503131028 75 96 1.0 7.0 0.00 0.00 0.00 36 1009.5
20260503130524 75 134 1.0 10.0 0.00 0.00 0.00 36 1009.4
20260503110526 77 111 2.0 9.0 0.00 0.00 0.00 33 1008.9
20260503081538 76 130 2.0 5.0 0.00 0.00 0.00 28 1009.0
20260503081024 76 123 1.0 4.0 0.00 0.00 0.00 29 1009.1
20260503080525 76 115 1.0 6.0 0.00 0.00 0.00 29 1009.2
20260503072523 76 150 1.0 3.0 0.00 0.00 0.00 28 1009.2
20260503072023 76 131 1.0 3.0 0.00 0.00 0.00 27 1009.2
20260503071539 76 148 1.0 3.0 0.00 0.00 0.00 27 1009.3
20260503071026 77 134 1.0 3.0 0.00 0.00 0.00 27 1009.2
20260503070526 77 134 1.0 6.0 0.00 0.00 0.00 26 1009.2
20260503055022 79 94 1.0 4.0 0.00 0.00 0.00 22 1008.8
20260503054542 79 94 0.0 3.0 0.00 0.00 0.00 22 1008.8
20260503054022 79 0 0.0 3.0 0.00 0.00 0.00 22 1008.7
20260503053525 79 107 1.0 3.0 0.00 0.00 0.00 22 1008.8
20260503053040 79 0 1.0 3.0 0.00 0.00 0.00 22 1008.8
20260503052525 79 157 1.0 4.0 0.00 0.00 0.00 22 1008.8
20260503052024 79 157 1.0 4.0 0.00 0.00 0.00 22 1008.9
20260503051541 79 148 1.0 4.0 0.00 0.00 0.00 21 1008.9
20260503051024 80 0 1.0 6.0 0.00 0.00 0.00 21 1008.9
20260503050524 80 112 2.0 6.0 0.00 0.00 0.00 20 1008.9
20260503050040 80 80 2.0 6.0 0.00 0.00 0.00 20 1008.7
20260503045522 80 113 3.0 6.0 0.00 0.00 0.00 20 1008.7
20260503045028 80 99 2.0 6.0 0.00 0.00 0.00 21 1008.6
20260503044543 80 92 1.0 3.0 0.00 0.00 0.00 21 1008.5
20260503044023 80 92 2.0 3.0 0.00 0.00 0.00 21 1008.3
20260503043524 80 91 1.0 3.0 0.00 0.00 0.00 21 1008.4
20260503043043 80 91 2.0 3.0 0.00 0.00 0.00 22 1008.2
20260503042525 81 182 0.0 2.0 0.00 0.00 0.00 22 1008.2
20260503042025 81 182 0.0 1.0 0.00 0.00 0.00 21 1008.2
20260503041535 81 0 0.0 0.0 0.00 0.00 0.00 21 1008.1
20260503041029 81 0 0.0 0.0 0.00 0.00 0.00 22 1008.0
20260503040524 82 0 0.0 0.0 0.00 0.00 0.00 22 1007.9
20260503040042 82 0 0.0 0.0 0.00 0.00 0.00 22 1007.8
20260503035527 82 0 0.0 0.0 0.00 0.00 0.00 22 1007.8
20260503035025 82 0 0.0 0.0 0.00 0.00 0.00 21 1007.8
20260503034540 83 0 0.0 1.0 0.00 0.00 0.00 21 1007.6
20260503034025 83 0 0.0 1.0 0.00 0.00 0.00 21 1007.7
20260503033525 84 0 0.0 1.0 0.00 0.00 0.00 23 1007.6
20260503033047 84 182 0.0 1.0 0.00 0.00 0.00 20 1007.5